User: anonymous   Login
Location: Unspecified
(0.0000°N, 0.0000°E)
Time: 00:08:36
(UTC+00:00)
Language:

OBJECT DN - Orbit

View from above orbital plane
View from above orbital plane
View from above satellite
View from above satellite

Ground track
Ground track

The orbit is defined by the following mean orbital elements,

1 66774U          26145.15064536 +.00000000 +00000-0 +24145-3 0 00000
2 66774  97.4208 219.4173 0000435  40.3229 319.8039 15.20802730    02
Epoch (UTC): 25 May 2026 03:36:55
Eccentricity: 0.0000435
inclination: 97.4208°
perigee height: 503 km
apogee height: 504 km
right ascension of ascending node: 219.4173°
argument of perigee: 40.3229°
revolutions per day: 15.20802730
mean anomaly at epoch: 319.8039°

The dashed part of the orbit path shows where the satellite is in the earth's shadow,  

DLR